| time (UTC) | temp C | wind direction | speed KPH | gust KPH | rain 1hr cm | rain 24hr cm | rain mn cm | humidity % | barometer mb |
| 20260504211217 | 18 | 89 | 3.2 | 8.0 | 0.00 | 0.00 | 0.00 | 33 | 1008.8 |
| 20260504210237 | 18 | 168 | 8.0 | 12.9 | 0.00 | 0.00 | 0.00 | 31 | 1008.7 |
| 20260504205217 | 18 | 13 | 3.2 | 6.4 | 0.00 | 0.00 | 0.00 | 31 | 1008.9 |
| 20260504204217 | 18 | 88 | 6.4 | 9.7 | 0.00 | 0.00 | 0.00 | 33 | 1009.0 |
| 20260504203218 | 18 | 177 | 8.0 | 11.3 | 0.00 | 0.00 | 0.00 | 33 | 1009.2 |
| 20260504202218 | 17 | 158 | 6.4 | 12.9 | 0.00 | 0.00 | 0.00 | 37 | 1009.5 |
| 20260504201218 | 16 | 139 | 6.4 | 11.3 | 0.00 | 0.00 | 0.00 | 37 | 1009.8 |
| 20260504200219 | 15 | 166 | 6.4 | 9.7 | 0.00 | 0.00 | 0.00 | 38 | 1010.1 |
| 20260504195218 | 15 | 225 | 6.4 | 11.3 | 0.00 | 0.00 | 0.00 | 40 | 1010.2 |
| 20260504194218 | 15 | 185 | 6.4 | 11.3 | 0.00 | 0.00 | 0.00 | 40 | 1010.1 |
| 20260504193219 | 16 | 205 | 9.7 | 14.5 | 0.00 | 0.00 | 0.00 | 39 | 1009.9 |
| 20260504192219 | 18 | 178 | 8.0 | 12.9 | 0.00 | 0.00 | 0.00 | 33 | 1009.6 |
| 20260504191219 | 18 | 207 | 6.4 | 8.0 | 0.00 | 0.00 | 0.00 | 26 | 1009.2 |
| 20260504190219 | 19 | 311 | 3.2 | 6.4 | 0.00 | 0.00 | 0.00 | 26 | 1008.8 |
| 20260504185220 | 20 | 289 | 3.2 | 8.0 | 0.00 | 0.00 | 0.00 | 25 | 1008.7 |
| 20260504184219 | 21 | 289 | 4.8 | 9.7 | 0.00 | 0.00 | 0.00 | 25 | 1008.7 |
| 20260504183240 | 21 | 292 | 4.8 | 9.7 | 0.00 | 0.00 | 0.00 | 23 | 1008.8 |
| 20260504182220 | 20 | 301 | 4.8 | 6.4 | 0.00 | 0.00 | 0.00 | 23 | 1008.8 |
| 20260504181300 | 20 | 307 | 6.4 | 9.7 | 0.00 | 0.00 | 0.00 | 25 | 1009.0 |
| 20260504180300 | 20 | 352 | 3.2 | 6.4 | 0.00 | 0.00 | 0.00 | 25 | 1009.1 |
| 20260504175217 | 20 | 292 | 6.4 | 12.9 | 0.00 | 0.00 | 0.00 | 27 | 1009.2 |
| 20260504174220 | 19 | 292 | 8.0 | 12.9 | 0.00 | 0.00 | 0.00 | 28 | 1009.5 |
| 20260504173220 | 18 | 299 | 4.8 | 9.7 | 0.00 | 0.00 | 0.00 | 29 | 1009.7 |
| 20260504172220 | 18 | 331 | 6.4 | 9.7 | 0.00 | 0.00 | 0.00 | 29 | 1009.8 |
| 20260504171221 | 18 | 258 | 3.2 | 8.0 | 0.00 | 0.00 | 0.00 | 29 | 1009.8 |
| 20260504170218 | 18 | 295 | 4.8 | 11.3 | 0.00 | 0.00 | 0.00 | 29 | 1009.9 |
| 20260504160228 | 16 | 262 | 4.8 | 6.4 | 0.00 | 0.00 | 0.00 | 31 | 1010.6 |
| 20260504150217 | 15 | 268 | 3.2 | 4.8 | 0.00 | 0.00 | 0.00 | 31 | 1010.6 |
| 20260504141218 | 15 | 305 | 4.8 | 8.0 | 0.00 | 0.00 | 0.00 | 31 | 1010.9 |
| 20260504140218 | 15 | 295 | 4.8 | 4.8 | 0.00 | 0.00 | 0.00 | 31 | 1010.9 |
| 20260504130216 | 12 | 284 | 3.2 | 3.2 | 0.00 | 0.00 | 0.00 | 28 | 1010.9 |
| 20260504120219 | 11 | 274 | 6.4 | 8.0 | 0.00 | 0.00 | 0.00 | 29 | 1010.2 |
| 20260504110228 | 9 | 293 | 4.8 | 8.0 | 0.00 | 0.00 | 0.00 | 31 | 1010.6 |
| 20260504100227 | 8 | 304 | 4.8 | 8.0 | 0.00 | 0.00 | 0.00 | 41 | 1011.1 |
| 20260504081227 | 10 | 193 | 1.6 | 1.6 | 0.00 | 0.00 | 0.00 | 36 | 1011.7 |
| 20260504080225 | 8 | 299 | 4.8 | 4.8 | 0.00 | 0.00 | 0.00 | 40 | 1011.7 |
| 20260504070226 | 11 | 272 | 3.2 | 4.8 | 0.00 | 0.00 | 0.00 | 39 | 1012.3 |
| 20260504060222 | 12 | 267 | 4.8 | 6.4 | 0.00 | 0.00 | 0.00 | 34 | 1012.4 |
| 20260504050220 | 14 | 204 | 1.6 | 3.2 | 0.00 | 0.00 | 0.00 | 29 | 1012.3 |
| 20260504045223 | 14 | 186 | 4.8 | 6.4 | 0.00 | 0.00 | 0.00 | 30 | 1012.4 |
| 20260504044223 | 14 | 228 | 1.6 | 3.2 | 0.00 | 0.00 | 0.00 | 29 | 1012.4 |
| 20260504043223 | 14 | 211 | 1.6 | 3.2 | 0.00 | 0.00 | 0.00 | 31 | 1012.4 |
| 20260504042223 | 14 | 230 | 1.6 | 1.6 | 0.00 | 0.00 | 0.00 | 30 | 1012.4 |
| 20260504041224 | 15 | 276 | 1.6 | 3.2 | 0.00 | 0.00 | 0.00 | 30 | 1012.5 |
| 20260504040224 | 15 | 235 | 1.6 | 1.6 | 0.00 | 0.00 | 0.00 | 29 | 1012.6 |
| 20260504035305 | 15 | 277 | 4.8 | 6.4 | 0.00 | 0.00 | 0.00 | 30 | 1012.6 |
| 20260504034224 | 15 | 298 | 3.2 | 4.8 | 0.00 | 0.00 | 0.00 | 30 | 1012.7 |
| 20260504033224 | 15 | 286 | 4.8 | 6.4 | 0.00 | 0.00 | 0.00 | 29 | 1012.7 |
| 20260504032224 | 15 | 293 | 4.8 | 6.4 | 0.00 | 0.00 | 0.00 | 29 | 1012.8 |
| 20260504031221 | 16 | 290 | 6.4 | 9.7 | 0.00 | 0.00 | 0.00 | 29 | 1012.7 |
| 20260504030222 | 16 | 288 | 4.8 | 8.0 | 0.00 | 0.00 | 0.00 | 29 | 1012.6 |
| 20260504025228 | 16 | 297 | 3.2 | 4.8 | 0.00 | 0.00 | 0.00 | 28 | 1012.5 |
| 20260504024231 | 16 | 264 | 3.2 | 4.8 | 0.00 | 0.00 | 0.00 | 28 | 1012.5 |
| 20260504023248 | 16 | 282 | 4.8 | 8.0 | 0.00 | 0.00 | 0.00 | 27 | 1012.5 |
| 20260504022233 | 16 | 238 | 4.8 | 8.0 | 0.00 | 0.00 | 0.00 | 28 | 1012.5 |
| 20260504021228 | 17 | 224 | 6.4 | 8.0 | 0.00 | 0.00 | 0.00 | 26 | 1012.5 |
| 20260504020228 | 17 | 200 | 4.8 | 12.9 | 0.00 | 0.00 | 0.00 | 25 | 1012.4 |
| 20260504015232 | 17 | 289 | 3.2 | 4.8 | 0.00 | 0.00 | 0.00 | 26 | 1012.3 |
| 20260504014231 | 17 | 288 | 4.8 | 6.4 | 0.00 | 0.00 | 0.00 | 26 | 1012.2 |
| 20260504013252 | 17 | 241 | 3.2 | 4.8 | 0.00 | 0.00 | 0.00 | 26 | 1012.1 |
| 20260504012232 | 17 | 278 | 4.8 | 4.8 | 0.00 | 0.00 | 0.00 | 26 | 1012.1 |
| 20260504011232 | 18 | 7 | 3.2 | 4.8 | 0.00 | 0.00 | 0.00 | 25 | 1012.1 |
| 20260504010223 | 18 | 22 | 4.8 | 9.7 | 0.00 | 0.00 | 0.00 | 25 | 1012.2 |
| 20260504005223 | 18 | 327 | 6.4 | 11.3 | 0.00 | 0.00 | 0.00 | 25 | 1012.2 |
| 20260504004224 | 17 | 15 | 3.2 | 4.8 | 0.00 | 0.00 | 0.00 | 26 | 1012.2 |
| 20260504003313 | 17 | 289 | 1.6 | 4.8 | 0.00 | 0.00 | 0.00 | 26 | 1012.3 |
| 20260504002225 | 17 | 341 | 3.2 | 6.4 | 0.00 | 0.00 | 0.00 | 26 | 1012.3 |
| 20260504001244 | 17 | 1 | 4.8 | 8.0 | 0.00 | 0.00 | 0.00 | 25 | 1012.4 |
| 20260504000253 | 17 | 356 | 3.2 | 4.8 | 0.00 | 0.00 | 0.00 | 28 | 1012.6 |
| 20260503235253 | 17 | 34 | 3.2 | 3.2 | 0.00 | 0.00 | 0.00 | 26 | 1012.7 |
| 20260503234224 | 17 | 24 | 3.2 | 4.8 | 0.00 | 0.00 | 0.00 | 30 | 1012.8 |
| 20260503233233 | 17 | 6 | 3.2 | 4.8 | 0.00 | 0.00 | 0.00 | 30 | 1012.9 |
| 20260503232225 | 17 | 8 | 4.8 | 6.4 | 0.00 | 0.00 | 0.00 | 30 | 1012.6 |
| 20260503231226 | 18 | 30 | 9.7 | 11.3 | 0.00 | 0.00 | 0.00 | 28 | 1012.2 |
| 20260503230234 | 18 | 26 | 4.8 | 8.0 | 0.00 | 0.00 | 0.00 | 25 | 1012.3 |
| 20260503225315 | 18 | 334 | 3.2 | 6.4 | 0.00 | 0.00 | 0.00 | 24 | 1012.5 |
| 20260503224245 | 18 | 17 | 4.8 | 6.4 | 0.00 | 0.00 | 0.00 | 23 | 1012.5 |
| 20260503223306 | 18 | 18 | 4.8 | 6.4 | 0.00 | 0.00 | 0.00 | 23 | 1012.2 |
| 20260503222234 | 19 | 17 | 3.2 | 4.8 | 0.00 | 0.00 | 0.00 | 23 | 1012.3 |
| 20260503221225 | 19 | 15 | 4.8 | 4.8 | 0.00 | 0.00 | 0.00 | 24 | 1012.6 |
| 20260503220225 | 18 | 258 | 4.8 | 8.0 | 0.00 | 0.00 | 0.00 | 24 | 1012.9 |
| 20260503215226 | 18 | 208 | 8.0 | 12.9 | 0.00 | 0.00 | 0.00 | 23 | 1013.0 |
| 20260503214227 | 18 | 223 | 6.4 | 9.7 | 0.00 | 0.00 | 0.00 | 22 | 1013.1 |
| 20260503213327 | 18 | 229 | 6.4 | 11.3 | 0.00 | 0.00 | 0.00 | 22 | 1013.2 |
| 20260503212224 | 20 | 234 | 8.0 | 12.9 | 0.00 | 0.00 | 0.00 | 21 | 1013.2 |